Binghamton, NY

9:57 AM EDT on September 23, 2019 (GMT -0400)
Binghamton Regional-Link

Weather History for KBGM - July, 2019

Change the Weather History Date:

Sunday, July 21, 2019

  Actual Average Record
Temperature  
Mean Temperature 77 °F 69 °F  
Max Temperature 87 °F 78 °F 95 °F (2011)
Min Temperature 67 °F 60 °F 44 °F (1965)
Degree Days  
Heating Degree Days 0 1  
Month to date heating degree days 0 21  
Since 1 June heating degree days 94 112  
Since 1 July heating degree days 0 21  
Cooling Degree Days 12 5  
Month to date cooling degree days 159 96  
Year to date cooling degree days 212 193  
Since 1 June cooling degree days 205 170  
Growing Degree Days 29 (Base 50)    
Moisture  
Dew Point 67 °F    
Average Humidity 72    
Maximum Humidity 93    
Minimum Humidity 51    
Precipitation  
Precipitation 0.00 in 0.12 in 2.17 in (1952)
Month to date precipitation 2.00 2.53  
Year to date precipitation 24.07 21.59  
Snow  
Snow 0.00 in 0.00 in 0.00 in (2002)
Month to date snowfall 0.0 0.0  
Since 1 June snowfall 0.0 0.0  
Since 1 July snowfall 0.0 0.0  
Snow Depth 0.00 in    
Sea Level Pressure  
Sea Level Pressure 29.85 in    
Wind  
Wind Speed 8 mph (WNW)    
Max Wind Speed 18 mph    
Max Gust Speed 24 mph    
Visibility 10 miles    
Events      
T = Trace of Precipitation, MM = Missing Value Source: NWS Daily Summary

Daily Weather History Graph

Daily Weather History Graph

Search for Another Location

Airport or City:

Astronomy

Jul. 21, 2019 Rise Set
Actual Time 5:45 AM EDT 8:34 PM EDT
Civil Twilight 5:13 AM EDT 9:06 PM EDT
Nautical Twilight 4:31 AM EDT 9:48 PM EDT
Astronomical Twilight 3:43 AM EDT 10:35 PM EDT
Moon 11:23 PM EDT (7/21) 10:08 AM EDT (7/21)
Length of Visible Light 15h 53m
Length of Day
14h 48m
Waning Gibbous, 80% of the Moon is Illuminated
Jul 21
Waning Gibbous
Jul 24
Last Quarter
Jul 31
New
Aug 7
First Quarter
Aug 15
Full

Hourly Weather History & Observations

Time (EDT) Temp. Heat Index Dew Point Humidity Pressure Visibility Wind Dir Wind Speed Gust Speed Precip Events Conditions
12:53 AM 75.0 °F - 69.1 °F 82% 29.86 in 10.0 mi West 6.9 mph - N/A   Mostly Cloudy
1:53 AM 75.0 °F - 68.0 °F 79% 29.83 in 10.0 mi West 8.1 mph - N/A   Clear
2:53 AM 73.9 °F - 68.0 °F 82% 29.77 in 10.0 mi South 6.9 mph - N/A   Clear
3:53 AM 72.0 °F - 69.1 °F 91% 29.79 in 10.0 mi WSW 5.8 mph - N/A   Clear
4:53 AM 73.0 °F - 69.1 °F 87% 29.81 in 10.0 mi West 5.8 mph - N/A   Clear
5:53 AM 73.0 °F - 69.1 °F 87% 29.83 in 10.0 mi WSW 6.9 mph - N/A   Partly Cloudy
6:53 AM 73.0 °F - 70.0 °F 90% 29.85 in 10.0 mi WSW 6.9 mph - N/A   Partly Cloudy
7:53 AM 75.0 °F - 71.1 °F 87% 29.86 in 10.0 mi WSW 8.1 mph - N/A   Clear
8:53 AM 77.0 °F - 69.1 °F 76% 29.85 in 10.0 mi West 8.1 mph - N/A   Clear
9:53 AM 81.0 °F 83.8 °F 68.0 °F 65% 29.84 in 10.0 mi NW 6.9 mph - N/A   Clear
10:53 AM 82.0 °F 85.5 °F 69.1 °F 65% 29.83 in 10.0 mi WNW 8.1 mph - N/A   Scattered Clouds
11:53 AM 84.0 °F 87.0 °F 68.0 °F 58% 29.84 in 10.0 mi West 18.4 mph 24.2 mph N/A   Scattered Clouds
12:53 PM 84.9 °F 88.2 °F 68.0 °F 57% 29.84 in 10.0 mi WNW 10.4 mph - N/A   Partly Cloudy
1:19 PM 84.0 °F 87.0 °F 68.0 °F 58% 29.89 in 10.0 mi NNW 10.4 mph - N/A   Partly Cloudy
1:53 PM 84.9 °F 88.8 °F 69.1 °F 59% 29.85 in 10.0 mi NW 13.8 mph 20.7 mph N/A   Partly Cloudy
2:53 PM 86.0 °F 88.8 °F 66.9 °F 53% 29.85 in 10.0 mi WNW 11.5 mph 20.7 mph N/A   Partly Cloudy
3:53 PM 84.9 °F 87.6 °F 66.9 °F 55% 29.83 in 10.0 mi NNW 11.5 mph - N/A   Clear
4:53 PM 82.9 °F 85.8 °F 68.0 °F 60% 29.84 in 10.0 mi NNW 10.4 mph - N/A   Partly Cloudy
5:53 PM 80.1 °F 82.3 °F 66.9 °F 64% 29.86 in 10.0 mi Variable 6.9 mph - N/A   Mostly Cloudy
6:53 PM 78.1 °F - 66.0 °F 66% 29.87 in 10.0 mi NNW 10.4 mph - N/A   Scattered Clouds
7:53 PM 75.9 °F - 64.9 °F 69% 29.89 in 10.0 mi NW 4.6 mph - N/A   Partly Cloudy
8:53 PM 75.0 °F - 64.0 °F 69% 29.90 in 10.0 mi WNW 5.8 mph - N/A   Overcast
9:53 PM 73.9 °F - 60.1 °F 62% 29.92 in 10.0 mi NW 5.8 mph - N/A   Scattered Clouds
10:53 PM 73.0 °F - 57.0 °F 57% 29.91 in 10.0 mi NNW 6.9 mph - N/A   Clear
11:53 PM 70.0 °F - 55.9 °F 61% 29.90 in 10.0 mi North 6.9 mph - N/A   Clear